Location: ActonStarParty
(42.4766°N, 71.4538°W)
Time: 19:36:00
(UTC-04:00)

ISS - Visible Passes

Search period start: 22 August 2014 00:00
Search period end: 01 September 2014 00:00
Orbit: 413 x 419 km, 51.6° (Epoch: 22 August)

Date Brightness Start Highest point End Pass type
(mag) Time Alt. Az. Time Alt. Az. Time Alt. Az.
22 Aug -3.1 20:21:18 10° WNW 20:24:37 66° SW 20:27:33 13° SE visible
23 Aug -0.7 21:10:34 10° W 21:12:25 14° SW 21:13:58 11° SSW visible
24 Aug -1.3 20:21:16 10° W 20:24:01 24° SW 20:26:46 10° S visible
